TimeCST,TemperatureF,Dew PointF,Humidity,Sea Level PressureIn,VisibilityMPH,Wind Direction,Wind SpeedMPH,Gust SpeedMPH,PrecipitationIn,Events,Conditions,WindDirDegrees,DateUTC
12:53 AM,36.0,28.0,73,30.66,10.0,North,6.9,-,N/A,,Clear,10,2013-11-13 06:53:00
1:53 AM,34.0,27.0,75,30.67,10.0,North,3.5,-,N/A,,Clear,360,2013-11-13 07:53:00
2:53 AM,33.1,27.0,78,30.67,10.0,NNE,4.6,-,N/A,,Clear,20,2013-11-13 08:53:00
3:53 AM,32.0,27.0,82,30.67,10.0,NNE,5.8,-,N/A,,Clear,30,2013-11-13 09:53:00
4:53 AM,30.9,26.1,82,30.68,10.0,NE,5.8,-,N/A,,Clear,40,2013-11-13 10:53:00
5:53 AM,30.0,26.1,85,30.69,10.0,NE,4.6,-,N/A,,Clear,40,2013-11-13 11:53:00
6:53 AM,30.9,24.1,76,30.68,10.0,ENE,5.8,-,N/A,,Clear,60,2013-11-13 12:53:00
7:53 AM,34.0,24.1,67,30.68,9.0,ENE,8.1,-,0.00,Snow,Light Snow,60,2013-11-13 13:53:00
8:53 AM,37.9,21.9,53,30.68,9.0,ENE,10.4,-,0.00,Snow,Light Snow,70,2013-11-13 14:53:00
9:53 AM,42.1,19.9,41,30.67,10.0,East,10.4,-,0.00,,Clear,80,2013-11-13 15:53:00
10:53 AM,44.1,19.0,37,30.66,10.0,East,8.1,-,N/A,,Clear,80,2013-11-13 16:53:00
11:53 AM,46.9,19.9,34,30.63,10.0,East,4.6,-,N/A,,Clear,80,2013-11-13 17:53:00
12:53 PM,50.0,19.0,29,30.58,10.0,NE,4.6,-,N/A,,Clear,50,2013-11-13 18:53:00
1:53 PM,51.1,19.9,29,30.55,10.0,North,4.6,-,N/A,,Clear,360,2013-11-13 19:53:00
2:53 PM,51.1,19.9,29,30.52,10.0,East,9.2,-,N/A,,Clear,80,2013-11-13 20:53:00
3:53 PM,52.0,19.9,28,30.50,10.0,ENE,4.6,-,N/A,,Clear,60,2013-11-13 21:53:00
4:53 PM,50.0,21.9,33,30.49,10.0,East,3.5,-,N/A,,Clear,100,2013-11-13 22:53:00
5:53 PM,45.0,25.0,46,30.49,10.0,Calm,Calm,-,N/A,,Clear,0,2013-11-13 23:53:00
6:53 PM,42.1,30.9,65,30.49,10.0,Calm,Calm,-,N/A,,Clear,0,2013-11-14 00:53:00
7:53 PM,39.0,28.9,67,30.49,10.0,Calm,Calm,-,N/A,,Clear,0,2013-11-14 01:53:00
8:53 PM,39.0,28.0,65,30.48,10.0,Calm,Calm,-,N/A,,Clear,0,2013-11-14 02:53:00
9:53 PM,36.0,27.0,70,30.46,10.0,ESE,5.8,-,N/A,,Clear,120,2013-11-14 03:53:00
10:53 PM,35.1,27.0,72,30.43,10.0,ESE,4.6,-,N/A,,Clear,120,2013-11-14 04:53:00
11:53 PM,34.0,27.0,75,30.41,10.0,ESE,5.8,-,N/A,,Clear,120,2013-11-14 05:53:00